Time,TemperatureF,DewpointF,PressureIn,WindDirection,WindDirectionDegrees,WindSpeedMPH,WindSpeedGustMPH,Humidity,HourlyPrecipIn,Conditions,Clouds,dailyrainin,SoftwareType,DateUTC
2013-03-29 00:04:00,65.3,26.6,29.98,NE,46,0.0,0.0,23,0.00,,SKC,0.00,VWS V14.01,2013-03-29 07:04:00,
2013-03-29 00:10:00,64.9,27.3,29.98,NE,45,0.0,1.0,24,0.00,,SKC,0.00,VWS V14.01,2013-03-29 07:10:00,
2013-03-29 00:15:00,64.7,27.1,29.98,NE,46,0.0,1.0,24,0.00,,SKC,0.00,VWS V14.01,2013-03-29 07:15:00,
2013-03-29 00:20:00,65.0,27.4,29.98,NE,46,0.0,1.0,24,0.00,,SKC,0.00,VWS V14.01,2013-03-29 07:20:00,
2013-03-29 00:25:00,65.1,27.4,29.98,NE,46,0.0,1.0,24,0.00,,SKC,0.00,VWS V14.01,2013-03-29 07:25:00,
2013-03-29 00:30:00,64.8,28.2,29.98,NE,46,0.0,1.0,25,0.00,,SKC,0.00,VWS V14.01,2013-03-29 07:30:00,
2013-03-29 00:35:00,63.9,27.4,29.98,NE,46,0.0,0.0,25,0.00,,SKC,0.00,VWS V14.01,2013-03-29 07:35:00,
2013-03-29 00:40:00,63.4,27.0,29.98,NE,45,0.0,0.0,25,0.00,,SKC,0.00,VWS V14.01,2013-03-29 07:40:00,
2013-03-29 00:45:00,62.9,26.6,29.98,NE,46,0.0,1.0,25,0.00,,SKC,0.00,VWS V14.01,2013-03-29 07:45:00,
2013-03-29 00:50:00,62.4,27.1,29.98,ENE,64,0.0,0.0,26,0.00,,SKC,0.00,VWS V14.01,2013-03-29 07:50:00,
2013-03-29 00:55:00,62.5,26.2,29.98,ENE,65,0.0,0.0,25,0.00,,SKC,0.00,VWS V14.01,2013-03-29 07:55:00,
2013-03-29 01:01:00,63.0,26.6,29.98,ESE,106,3.0,3.0,25,0.00,,SKC,0.00,VWS V14.01,2013-03-29 08:01:00,
2013-03-29 01:06:00,63.6,27.2,29.98,ESE,110,0.0,3.0,25,0.00,,SKC,0.00,VWS V14.01,2013-03-29 08:06:00,
2013-03-29 01:11:00,63.9,28.4,29.98,ESE,111,0.0,3.0,26,0.00,,SKC,0.00,VWS V14.01,2013-03-29 08:11:00,
2013-03-29 01:16:00,64.4,28.8,29.98,ESE,111,0.0,3.0,26,0.00,,SKC,0.00,VWS V14.01,2013-03-29 08:16:00,
2013-03-29 01:21:00,64.6,28.0,29.98,ESE,113,0.0,0.0,25,0.00,,SKC,0.00,VWS V14.01,2013-03-29 08:21:00,
2013-03-29 01:26:00,64.6,29.0,29.97,ESE,115,0.0,3.0,26,0.00,,SKC,0.00,VWS V14.01,2013-03-29 08:26:00,
2013-03-29 01:31:00,64.6,29.0,29.97,ESE,118,0.0,3.0,26,0.00,,SKC,0.00,VWS V14.01,2013-03-29 08:31:00,
2013-03-29 01:36:00,64.5,27.9,29.97,ESE,118,0.0,2.0,25,0.00,,SKC,0.00,VWS V14.01,2013-03-29 08:36:00,
2013-03-29 01:41:00,65.0,28.4,29.97,SE,125,3.0,4.0,25,0.00,,SKC,0.00,VWS V14.01,2013-03-29 08:41:00,
2013-03-29 01:47:00,65.5,28.8,29.97,SE,128,0.0,4.0,25,0.00,,SKC,0.00,VWS V14.01,2013-03-29 08:47:00,
2013-03-29 01:52:00,65.7,29.0,29.97,SE,128,0.0,1.0,25,0.00,,SKC,0.00,VWS V14.01,2013-03-29 08:52:00,
2013-03-29 01:57:00,65.9,28.1,29.97,SE,130,0.0,1.0,24,0.00,,SKC,0.00,VWS V14.01,2013-03-29 08:57:00,
2013-03-29 02:02:00,66.1,28.3,29.97,SE,130,0.0,2.0,24,0.00,,SKC,0.00,VWS V14.01,2013-03-29 09:02:00,
2013-03-29 02:07:00,66.2,28.4,29.97,SE,130,0.0,0.0,24,0.00,,SKC,0.00,VWS V14.01,2013-03-29 09:07:00,
2013-03-29 02:12:00,65.5,28.8,29.97,SE,132,0.0,0.0,25,0.00,,SKC,0.00,VWS V14.01,2013-03-29 09:12:00,
2013-03-29 02:17:00,64.5,27.9,29.96,SE,132,0.0,0.0,25,0.00,,SKC,0.00,VWS V14.01,2013-03-29 09:17:00,
2013-03-29 02:22:00,62.5,28.1,29.96,South,171,0.0,4.0,27,0.00,,SKC,0.00,VWS V14.01,2013-03-29 09:22:00,
2013-03-29 02:27:00,61.8,27.5,29.96,South,171,0.0,4.0,27,0.00,,SKC,0.00,VWS V14.01,2013-03-29 09:27:00,
2013-03-29 02:32:00,61.7,28.3,29.96,South,171,0.0,0.0,28,0.00,,SKC,0.00,VWS V14.01,2013-03-29 09:32:00,
2013-03-29 02:37:00,61.4,28.0,29.96,South,171,0.0,0.0,28,0.00,,SKC,0.00,VWS V14.01,2013-03-29 09:37:00,
2013-03-29 02:42:00,61.0,27.7,29.96,South,171,0.0,0.0,28,0.00,,SKC,0.00,VWS V14.01,2013-03-29 09:42:00,
2013-03-29 02:48:00,60.7,27.4,29.96,South,171,0.0,0.0,28,0.00,,SKC,0.00,VWS V14.01,2013-03-29 09:48:00,
2013-03-29 02:53:00,60.4,28.0,29.96,South,171,0.0,0.0,29,0.00,,SKC,0.00,VWS V14.01,2013-03-29 09:53:00,
2013-03-29 02:58:00,60.2,27.9,29.96,South,171,0.0,0.0,29,0.00,,SKC,0.00,VWS V14.01,2013-03-29 09:58:00,
2013-03-29 03:03:00,59.8,28.3,29.96,South,171,0.0,0.0,30,0.00,,SKC,0.00,VWS V14.01,2013-03-29 10:03:00,
2013-03-29 03:08:00,59.5,27.2,29.96,South,171,0.0,0.0,29,0.00,,SKC,0.00,VWS V14.01,2013-03-29 10:08:00,
2013-03-29 03:13:00,59.5,28.1,29.96,South,171,1.0,2.0,30,0.00,,SKC,0.00,VWS V14.01,2013-03-29 10:13:00,
2013-03-29 03:18:00,59.9,28.4,29.96,South,171,0.0,0.0,30,0.00,,SKC,0.00,VWS V14.01,2013-03-29 10:18:00,
2013-03-29 03:23:00,60.0,28.5,29.96,South,172,0.0,2.0,30,0.00,,SKC,0.00,VWS V14.01,2013-03-29 10:23:00,
2013-03-29 03:28:00,60.1,28.6,29.96,South,172,0.0,2.0,30,0.00,,SKC,0.00,VWS V14.01,2013-03-29 10:28:00,
2013-03-29 03:33:00,60.0,28.5,29.96,South,173,0.0,2.0,30,0.00,,SKC,0.00,VWS V14.01,2013-03-29 10:33:00,
2013-03-29 03:38:00,60.0,28.5,29.96,South,173,0.0,2.0,30,0.00,,SKC,0.00,VWS V14.01,2013-03-29 10:38:00,
2013-03-29 03:43:00,59.5,28.1,29.97,South,175,0.0,2.0,30,0.00,,SKC,0.00,VWS V14.01,2013-03-29 10:43:00,
2013-03-29 03:48:00,59.0,27.6,29.97,South,175,0.0,0.0,30,0.00,,SKC,0.00,VWS V14.01,2013-03-29 10:48:00,
2013-03-29 03:54:00,58.8,28.3,29.97,South,175,0.0,0.0,31,0.00,,SKC,0.00,VWS V14.01,2013-03-29 10:54:00,
2013-03-29 03:59:00,58.1,27.6,29.96,South,175,0.0,0.0,31,0.00,,SKC,0.00,VWS V14.01,2013-03-29 10:59:00,
2013-03-29 04:04:00,57.7,28.1,29.96,South,175,0.0,0.0,32,0.00,,SKC,0.00,VWS V14.01,2013-03-29 11:04:00,
2013-03-29 04:09:00,57.4,27.8,29.96,South,175,0.0,0.0,32,0.00,,SKC,0.00,VWS V14.01,2013-03-29 11:09:00,
2013-03-29 04:14:00,57.6,28.0,29.97,South,180,0.0,3.0,32,0.00,,SKC,0.00,VWS V14.01,2013-03-29 11:14:00,
2013-03-29 04:19:00,57.9,28.2,29.97,South,180,0.0,1.0,32,0.00,,SKC,0.00,VWS V14.01,2013-03-29 11:19:00,
2013-03-29 04:24:00,57.9,28.2,29.97,South,180,0.0,1.0,32,0.00,,SKC,0.00,VWS V14.01,2013-03-29 11:24:00,
2013-03-29 04:29:00,58.1,28.4,29.97,South,175,0.0,2.0,32,0.00,,SKC,0.00,VWS V14.01,2013-03-29 11:29:00,
2013-03-29 04:34:00,58.7,28.9,29.97,South,171,1.0,1.0,32,0.00,,SKC,0.00,VWS V14.01,2013-03-29 11:34:00,
2013-03-29 04:39:00,59.5,28.9,29.97,South,172,0.0,3.0,31,0.00,,SKC,0.00,VWS V14.01,2013-03-29 11:39:00,
2013-03-29 04:44:00,59.3,28.7,29.97,South,173,0.0,3.0,31,0.00,,SKC,0.00,VWS V14.01,2013-03-29 11:44:00,
2013-03-29 04:50:00,58.7,28.9,29.97,South,174,0.0,0.0,32,0.00,,SKC,0.00,VWS V14.01,2013-03-29 11:50:00,
2013-03-29 04:54:00,58.0,28.3,29.98,South,180,0.0,3.0,32,0.00,,SKC,0.00,VWS V14.01,2013-03-29 11:54:00,
2013-03-29 05:00:00,57.6,28.7,29.98,SSW,193,0.0,4.0,33,0.00,,SKC,0.00,VWS V14.01,2013-03-29 12:00:00,
2013-03-29 05:05:00,57.6,28.7,29.98,SSW,193,0.0,2.0,33,0.00,,SKC,0.00,VWS V14.01,2013-03-29 12:05:00,
2013-03-29 05:10:00,57.4,28.5,29.98,SSW,193,0.0,2.0,33,0.00,,SKC,0.00,VWS V14.01,2013-03-29 12:10:00,
2013-03-29 05:15:00,57.8,28.9,29.98,SSW,192,0.0,4.0,33,0.00,,SKC,0.00,VWS V14.01,2013-03-29 12:15:00,
2013-03-29 05:20:00,57.8,28.9,29.98,SSW,193,0.0,0.0,33,0.00,,SKC,0.00,VWS V14.01,2013-03-29 12:20:00,
2013-03-29 05:25:00,57.3,28.5,29.98,SSW,192,0.0,0.0,33,0.00,,SKC,0.00,VWS V14.01,2013-03-29 12:25:00,
2013-03-29 05:30:00,57.0,28.2,29.98,SSW,193,0.0,0.0,33,0.00,,SKC,0.00,VWS V14.01,2013-03-29 12:30:00,
2013-03-29 05:35:00,56.6,28.6,29.98,SSW,193,0.0,0.0,34,0.00,,SKC,0.00,VWS V14.01,2013-03-29 12:35:00,
2013-03-29 05:40:00,56.3,28.3,29.98,SSW,193,0.0,0.0,34,0.00,,SKC,0.00,VWS V14.01,2013-03-29 12:40:00,
2013-03-29 05:45:00,56.0,28.8,29.98,South,189,0.0,0.0,35,0.00,,SKC,0.00,VWS V14.01,2013-03-29 12:45:00,
2013-03-29 05:50:00,55.4,28.2,29.98,South,185,0.0,1.0,35,0.00,,SKC,0.00,VWS V14.01,2013-03-29 12:50:00,
2013-03-29 05:55:00,54.9,28.5,29.98,South,173,0.0,1.0,36,0.00,,SKC,0.00,VWS V14.01,2013-03-29 12:55:00,
2013-03-29 06:00:00,55.1,28.6,29.98,South,172,0.0,1.0,36,0.00,,SKC,0.00,VWS V14.01,2013-03-29 13:00:00,
2013-03-29 06:05:00,55.3,28.8,29.98,South,172,0.0,0.0,36,0.00,,SKC,0.00,VWS V14.01,2013-03-29 13:05:00,
2013-03-29 06:10:00,55.5,29.0,29.98,South,173,0.0,0.0,36,0.00,,SKC,0.00,VWS V14.01,2013-03-29 13:10:00,
2013-03-29 06:15:00,55.6,29.1,29.99,South,173,0.0,0.0,36,0.00,,SKC,0.00,VWS V14.01,2013-03-29 13:15:00,
2013-03-29 06:21:00,55.4,29.6,29.99,South,173,0.0,0.0,37,0.00,,SKC,0.00,VWS V14.01,2013-03-29 13:21:00,
2013-03-29 06:26:00,55.5,29.0,29.99,South,173,0.0,0.0,36,0.00,,SKC,0.00,VWS V14.01,2013-03-29 13:26:00,
2013-03-29 06:31:00,55.2,28.7,29.99,South,173,0.0,0.0,36,0.00,,SKC,0.00,VWS V14.01,2013-03-29 13:31:00,
2013-03-29 06:36:00,54.4,28.0,30.00,South,173,0.0,0.0,36,0.00,,SKC,0.00,VWS V14.01,2013-03-29 13:36:00,
2013-03-29 06:42:00,53.7,28.1,30.00,NW,306,0.0,3.0,37,0.00,,SKC,0.00,VWS V14.01,2013-03-29 13:42:00,
2013-03-29 06:47:00,53.2,27.6,30.00,NW,309,0.0,0.0,37,0.00,,SKC,0.00,VWS V14.01,2013-03-29 13:47:00,
2013-03-29 06:52:00,53.1,27.5,30.00,NW,308,0.0,0.0,37,0.00,,SKC,0.00,VWS V14.01,2013-03-29 13:52:00,
2013-03-29 06:57:00,53.6,28.0,30.00,NW,307,0.0,0.0,37,0.00,,SKC,0.00,VWS V14.01,2013-03-29 13:57:00,
2013-03-29 07:02:00,54.6,28.9,30.01,NW,308,0.0,0.0,37,0.00,,SKC,0.00,VWS V14.01,2013-03-29 14:02:00,
2013-03-29 07:07:00,56.1,28.8,30.01,NW,307,0.0,0.0,35,0.00,,SKC,0.00,VWS V14.01,2013-03-29 14:07:00,
2013-03-29 07:12:00,57.0,29.6,30.01,NW,308,0.0,0.0,35,0.00,,SKC,0.00,VWS V14.01,2013-03-29 14:12:00,
2013-03-29 07:17:00,57.9,29.7,30.01,South,184,0.0,0.0,34,0.00,,SKC,0.00,VWS V14.01,2013-03-29 14:17:00,
2013-03-29 07:22:00,58.7,30.4,30.01,South,184,0.0,1.0,34,0.00,,SKC,0.00,VWS V14.01,2013-03-29 14:22:00,
2013-03-29 07:27:00,59.2,30.1,30.01,South,184,0.0,1.0,33,0.00,,SKC,0.00,VWS V14.01,2013-03-29 14:27:00,
2013-03-29 07:32:00,60.2,31.0,30.01,South,174,0.0,0.0,33,0.00,,SKC,0.00,VWS V14.01,2013-03-29 14:32:00,
2013-03-29 07:37:00,61.0,31.7,30.01,South,175,0.0,0.0,33,0.00,,SKC,0.00,VWS V14.01,2013-03-29 14:37:00,
2013-03-29 07:42:00,61.4,31.3,30.01,South,188,0.0,0.0,32,0.00,,SKC,0.00,VWS V14.01,2013-03-29 14:42:00,
2013-03-29 07:47:00,62.2,32.0,30.01,South,188,0.0,0.0,32,0.00,,SKC,0.00,VWS V14.01,2013-03-29 14:47:00,
2013-03-29 07:52:00,62.7,31.6,30.01,SSW,196,1.0,4.0,31,0.00,,SKC,0.00,VWS V14.01,2013-03-29 14:52:00,
2013-03-29 07:57:00,62.9,31.8,30.02,SSW,199,0.0,4.0,31,0.00,,SKC,0.00,VWS V14.01,2013-03-29 14:57:00,
2013-03-29 08:03:00,63.1,31.2,30.02,WSW,258,0.0,0.0,30,0.00,,SKC,0.00,VWS V14.01,2013-03-29 15:03:00,
2013-03-29 08:08:00,62.9,31.8,30.02,West,261,0.0,2.0,31,0.00,,SKC,0.00,VWS V14.01,2013-03-29 15:08:00,
2013-03-29 08:13:00,63.1,31.2,30.02,West,261,0.0,2.0,30,0.00,,SKC,0.00,VWS V14.01,2013-03-29 15:13:00,
2013-03-29 08:18:00,63.4,31.5,30.02,West,261,0.0,0.0,30,0.00,,SKC,0.00,VWS V14.01,2013-03-29 15:18:00,
2013-03-29 08:23:00,63.9,31.9,30.02,West,261,0.0,0.0,30,0.00,,SKC,0.00,VWS V14.01,2013-03-29 15:23:00,
2013-03-29 08:28:00,64.5,32.4,30.02,West,260,1.0,1.0,30,0.00,,SKC,0.00,VWS V14.01,2013-03-29 15:28:00,
2013-03-29 08:33:00,65.0,32.0,30.02,West,260,0.0,1.0,29,0.00,,SKC,0.00,VWS V14.01,2013-03-29 15:33:00,
2013-03-29 08:38:00,65.5,32.4,30.02,West,261,2.0,2.0,29,0.00,,SKC,0.00,VWS V14.01,2013-03-29 15:38:00,
2013-03-29 08:43:00,66.2,33.0,30.02,West,261,0.0,2.0,29,0.00,,SKC,0.00,VWS V14.01,2013-03-29 15:43:00,
2013-03-29 08:48:00,67.2,33.0,30.02,West,261,0.0,1.0,28,0.00,,SKC,0.00,VWS V14.01,2013-03-29 15:48:00,
2013-03-29 08:53:00,67.8,33.5,30.02,West,261,0.0,1.0,28,0.00,,SKC,0.00,VWS V14.01,2013-03-29 15:53:00,
2013-03-29 08:58:00,68.4,34.0,30.02,West,264,0.0,3.0,28,0.00,,SKC,0.00,VWS V14.01,2013-03-29 15:58:00,
2013-03-29 09:03:00,68.9,33.6,30.02,West,264,0.0,1.0,27,0.00,,SKC,0.00,VWS V14.01,2013-03-29 16:03:00,
2013-03-29 09:08:00,69.8,33.4,30.02,West,261,0.0,1.0,26,0.00,,SKC,0.00,VWS V14.01,2013-03-29 16:08:00,
2013-03-29 09:13:00,70.3,33.8,30.02,SW,229,0.0,2.0,26,0.00,,SKC,0.00,VWS V14.01,2013-03-29 16:13:00,
2013-03-29 09:18:00,70.9,34.3,30.02,West,261,0.0,2.0,26,0.00,,SKC,0.00,VWS V14.01,2013-03-29 16:18:00,
2013-03-29 09:24:00,71.3,33.7,30.02,West,261,0.0,2.0,25,0.00,,SKC,0.00,VWS V14.01,2013-03-29 16:24:00,
2013-03-29 09:29:00,72.0,34.3,30.01,SW,227,0.0,3.0,25,0.00,,SKC,0.00,VWS V14.01,2013-03-29 16:29:00,
2013-03-29 09:34:00,72.5,34.7,30.01,SW,219,2.0,3.0,25,0.00,,SKC,0.00,VWS V14.01,2013-03-29 16:34:00,
2013-03-29 09:39:00,72.5,34.7,30.01,West,259,1.0,3.0,25,0.00,,SKC,0.00,VWS V14.01,2013-03-29 16:39:00,
2013-03-29 09:44:00,72.9,35.0,30.01,South,180,2.0,4.0,25,0.00,,SKC,0.00,VWS V14.01,2013-03-29 16:44:00,
2013-03-29 09:49:00,73.3,35.4,30.01,SW,236,1.0,3.0,25,0.00,,SKC,0.00,VWS V14.01,2013-03-29 16:49:00,
2013-03-29 09:54:00,73.9,34.9,30.01,WSW,240,0.0,3.0,24,0.00,,SKC,0.00,VWS V14.01,2013-03-29 16:54:00,
2013-03-29 09:59:00,74.3,35.2,30.01,SW,215,0.0,4.0,24,0.00,,SKC,0.00,VWS V14.01,2013-03-29 16:59:00,
2013-03-29 10:04:00,74.9,35.7,30.01,SW,223,0.0,0.0,24,0.00,,SKC,0.00,VWS V14.01,2013-03-29 17:04:00,
2013-03-29 10:09:00,75.2,36.0,30.01,SW,217,0.0,3.0,24,0.00,,SKC,0.00,VWS V14.01,2013-03-29 17:09:00,
2013-03-29 10:14:00,75.6,35.2,30.01,SE,136,0.0,3.0,23,0.00,,SKC,0.00,VWS V14.01,2013-03-29 17:14:00,
2013-03-29 10:19:00,76.0,35.6,30.00,West,276,0.0,2.0,23,0.00,,SKC,0.00,VWS V14.01,2013-03-29 17:19:00,
2013-03-29 10:25:00,76.2,35.7,30.00,West,277,2.0,5.0,23,0.00,,SKC,0.00,VWS V14.01,2013-03-29 17:25:00,
2013-03-29 10:30:00,76.5,36.0,30.00,NW,308,0.0,5.0,23,0.00,,SKC,0.00,VWS V14.01,2013-03-29 17:30:00,
2013-03-29 10:35:00,76.7,35.0,30.00,ESE,103,3.0,4.0,22,0.00,,SKC,0.00,VWS V14.01,2013-03-29 17:35:00,
2013-03-29 10:40:00,76.5,36.0,30.00,East,101,1.0,4.0,23,0.00,,SKC,0.00,VWS V14.01,2013-03-29 17:40:00,
2013-03-29 10:45:00,77.1,35.4,30.00,SSE,165,0.0,4.0,22,0.00,,SKC,0.00,VWS V14.01,2013-03-29 17:45:00,
2013-03-29 10:50:00,77.2,35.5,30.00,SSW,199,4.0,4.0,22,0.00,,SKC,0.00,VWS V14.01,2013-03-29 17:50:00,
2013-03-29 10:55:00,76.9,35.2,30.00,South,186,0.0,4.0,22,0.00,,SKC,0.00,VWS V14.01,2013-03-29 17:55:00,
2013-03-29 11:00:00,77.8,36.0,30.00,South,190,1.0,4.0,22,0.00,,SKC,0.00,VWS V14.01,2013-03-29 18:00:00,
2013-03-29 11:05:00,78.2,36.3,30.00,SSE,163,0.0,4.0,22,0.00,,SKC,0.00,VWS V14.01,2013-03-29 18:05:00,
2013-03-29 11:10:00,78.2,36.3,30.00,SSE,168,1.0,4.0,22,0.00,,SKC,0.00,VWS V14.01,2013-03-29 18:10:00,
2013-03-29 11:15:00,78.5,36.5,29.99,SE,137,0.0,4.0,22,0.00,,SKC,0.00,VWS V14.01,2013-03-29 18:15:00,
2013-03-29 11:20:00,78.7,36.7,29.99,ESE,117,0.0,4.0,22,0.00,,SKC,0.00,VWS V14.01,2013-03-29 18:20:00,
2013-03-29 11:25:00,79.8,37.6,29.99,ESE,117,0.0,4.0,22,0.00,,SKC,0.00,VWS V14.01,2013-03-29 18:25:00,
2013-03-29 11:31:00,80.4,38.1,29.99,WSW,255,0.0,5.0,22,0.00,,SKC,0.00,VWS V14.01,2013-03-29 18:31:00,
2013-03-29 11:36:00,80.6,37.1,29.99,West,259,1.0,6.0,21,0.00,,SKC,0.00,VWS V14.01,2013-03-29 18:36:00,
2013-03-29 11:41:00,80.1,37.9,29.99,West,270,5.0,6.0,22,0.00,,SKC,0.00,VWS V14.01,2013-03-29 18:41:00,
2013-03-29 11:46:00,80.1,37.9,29.99,WNW,299,2.0,7.0,22,0.00,,SKC,0.00,VWS V14.01,2013-03-29 18:46:00,
2013-03-29 11:51:00,81.0,38.6,29.99,WNW,299,0.0,0.0,22,0.00,,SKC,0.00,VWS V14.01,2013-03-29 18:51:00,
2013-03-29 11:56:00,81.5,36.6,29.99,NW,306,5.0,8.0,20,0.00,,SKC,0.00,VWS V14.01,2013-03-29 18:56:00,
2013-03-29 12:02:00,81.6,37.9,29.98,WNW,288,1.0,8.0,21,0.00,,SKC,0.00,VWS V14.01,2013-03-29 19:02:00,
2013-03-29 12:07:00,81.4,37.8,29.98,West,268,2.0,10.0,21,0.00,,SKC,0.00,VWS V14.01,2013-03-29 19:07:00,
2013-03-29 12:12:00,80.8,37.3,29.98,NW,312,0.0,10.0,21,0.00,,SKC,0.00,VWS V14.01,2013-03-29 19:12:00,
2013-03-29 12:17:00,81.4,36.5,29.98,West,263,6.0,10.0,20,0.00,,SKC,0.00,VWS V14.01,2013-03-29 19:17:00,
2013-03-29 12:22:00,81.7,36.8,29.98,SSW,212,3.0,6.0,20,0.00,,SKC,0.00,VWS V14.01,2013-03-29 19:22:00,
2013-03-29 12:27:00,80.9,34.8,29.98,SSW,193,0.0,8.0,19,0.00,,SKC,0.00,VWS V14.01,2013-03-29 19:27:00,
2013-03-29 12:32:00,81.5,35.3,29.97,NNW,347,0.0,0.0,19,0.00,,SKC,0.00,VWS V14.01,2013-03-29 19:32:00,
2013-03-29 12:37:00,81.4,35.2,29.97,South,180,3.0,8.0,19,0.00,,SKC,0.00,VWS V14.01,2013-03-29 19:37:00,
2013-03-29 12:42:00,81.3,32.4,29.97,WSW,241,4.0,8.0,17,0.00,,SKC,0.00,VWS V14.01,2013-03-29 19:42:00,
2013-03-29 12:47:00,81.6,34.0,29.97,SSW,192,4.0,5.0,18,0.00,,SKC,0.00,VWS V14.01,2013-03-29 19:47:00,
2013-03-29 12:52:00,82.2,31.6,29.97,WNW,302,5.0,12.0,16,0.00,,SKC,0.00,VWS V14.01,2013-03-29 19:52:00,
2013-03-29 12:57:00,82.7,32.0,29.96,NW,319,11.0,12.0,16,0.00,,SKC,0.00,VWS V14.01,2013-03-29 19:57:00,
2013-03-29 13:02:00,82.6,31.9,29.96,NW,313,0.0,3.0,16,0.00,,SKC,0.00,VWS V14.01,2013-03-29 20:02:00,
2013-03-29 13:08:00,83.2,30.8,29.95,WNW,295,5.0,8.0,15,0.00,,SKC,0.00,VWS V14.01,2013-03-29 20:08:00,
2013-03-29 13:13:00,83.4,29.3,29.95,NNW,328,2.0,8.0,14,0.00,,SKC,0.00,VWS V14.01,2013-03-29 20:13:00,
2013-03-29 13:18:00,83.8,31.3,29.96,West,268,1.0,10.0,15,0.00,,SKC,0.00,VWS V14.01,2013-03-29 20:18:00,
2013-03-29 13:23:00,83.6,31.1,29.95,NW,313,8.0,11.0,15,0.00,,SKC,0.00,VWS V14.01,2013-03-29 20:23:00,
2013-03-29 13:28:00,83.2,30.8,29.95,WNW,301,0.0,11.0,15,0.00,,SKC,0.00,VWS V14.01,2013-03-29 20:28:00,
2013-03-29 13:33:00,83.3,30.9,29.95,NE,45,0.0,7.0,15,0.00,,SKC,0.00,VWS V14.01,2013-03-29 20:33:00,
2013-03-29 13:38:00,84.6,30.2,29.94,West,266,5.0,7.0,14,0.00,,SKC,0.00,VWS V14.01,2013-03-29 20:38:00,
2013-03-29 13:43:00,84.7,32.0,29.94,NW,325,5.0,8.0,15,0.00,,SKC,0.00,VWS V14.01,2013-03-29 20:43:00,
2013-03-29 13:48:00,85.0,30.5,29.94,NW,306,5.0,7.0,14,0.00,,SKC,0.00,VWS V14.01,2013-03-29 20:48:00,
2013-03-29 13:53:00,84.7,28.5,29.94,NNW,344,6.0,8.0,13,0.00,,SKC,0.00,VWS V14.01,2013-03-29 20:53:00,
2013-03-29 13:58:00,84.4,30.0,29.94,NNW,338,6.0,9.0,14,0.00,,SKC,0.00,VWS V14.01,2013-03-29 20:58:00,
2013-03-29 14:04:00,84.8,30.4,29.94,NNE,28,0.0,5.0,14,0.00,,SKC,0.00,VWS V14.01,2013-03-29 21:04:00,
2013-03-29 14:09:00,84.7,30.3,29.94,NNE,25,0.0,8.0,14,0.00,,SKC,0.00,VWS V14.01,2013-03-29 21:09:00,
2013-03-29 14:14:00,84.5,31.8,29.93,NNE,33,9.0,15.0,15,0.00,,SKC,0.00,VWS V14.01,2013-03-29 21:14:00,
2013-03-29 14:19:00,84.9,30.4,29.93,NNE,13,8.0,8.0,14,0.00,,SKC,0.00,VWS V14.01,2013-03-29 21:19:00,
2013-03-29 14:24:00,84.8,30.4,29.93,NNE,29,4.0,11.0,14,0.00,,SKC,0.00,VWS V14.01,2013-03-29 21:24:00,
2013-03-29 14:29:00,85.3,30.8,29.93,NNW,336,6.0,11.0,14,0.00,,SKC,0.00,VWS V14.01,2013-03-29 21:29:00,
2013-03-29 14:34:00,85.5,30.9,29.93,NNE,28,5.0,6.0,14,0.00,,SKC,0.00,VWS V14.01,2013-03-29 21:34:00,
2013-03-29 14:39:00,85.5,29.1,29.93,North,355,10.0,10.0,13,0.00,,SKC,0.00,VWS V14.01,2013-03-29 21:39:00,
2013-03-29 14:44:00,85.6,29.2,29.93,NNW,334,7.0,11.0,13,0.00,,SKC,0.00,VWS V14.01,2013-03-29 21:44:00,
2013-03-29 14:49:00,86.1,29.6,29.93,North,9,3.0,10.0,13,0.00,,SKC,0.00,VWS V14.01,2013-03-29 21:49:00,
2013-03-29 14:54:00,85.8,29.3,29.92,North,11,0.0,10.0,13,0.00,,SKC,0.00,VWS V14.01,2013-03-29 21:54:00,
2013-03-29 14:59:00,85.5,29.1,29.92,ENE,57,0.0,10.0,13,0.00,,SKC,0.00,VWS V14.01,2013-03-29 21:59:00,
2013-03-29 15:04:00,84.6,28.4,29.92,ENE,61,4.0,9.0,13,0.00,,SKC,0.00,VWS V14.01,2013-03-29 22:04:00,
2013-03-29 15:09:00,83.8,27.8,29.92,NNE,29,6.0,9.0,13,0.00,,SKC,0.00,VWS V14.01,2013-03-29 22:09:00,
2013-03-29 15:14:00,84.9,28.6,29.92,NNW,332,0.0,10.0,13,0.00,,SKC,0.00,VWS V14.01,2013-03-29 22:14:00,
2013-03-29 15:19:00,85.4,29.0,29.92,NW,312,0.0,5.0,13,0.00,,SKC,0.00,VWS V14.01,2013-03-29 22:19:00,
2013-03-29 15:24:00,85.8,29.3,29.91,WSW,256,5.0,7.0,13,0.00,,SKC,0.00,VWS V14.01,2013-03-29 22:24:00,
2013-03-29 15:29:00,85.5,29.1,29.91,NE,37,5.0,10.0,13,0.00,,SKC,0.00,VWS V14.01,2013-03-29 22:29:00,
2013-03-29 15:34:00,85.6,27.2,29.91,NNW,329,5.0,9.0,12,0.00,,SKC,0.00,VWS V14.01,2013-03-29 22:34:00,
2013-03-29 15:39:00,85.4,29.0,29.91,NE,49,9.0,15.0,13,0.00,,SKC,0.00,VWS V14.01,2013-03-29 22:39:00,
2013-03-29 15:44:00,85.7,25.2,29.91,NW,304,12.0,15.0,11,0.00,,SKC,0.00,VWS V14.01,2013-03-29 22:44:00,
2013-03-29 15:50:00,85.0,24.7,29.91,NW,326,2.0,10.0,11,0.00,,SKC,0.00,VWS V14.01,2013-03-29 22:50:00,
2013-03-29 15:55:00,85.0,26.8,29.91,NNE,15,5.0,10.0,12,0.00,,SKC,0.00,VWS V14.01,2013-03-29 22:55:00,
2013-03-29 16:00:00,85.3,24.9,29.91,NNW,342,9.0,14.0,11,0.00,,SKC,0.00,VWS V14.01,2013-03-29 23:00:00,
2013-03-29 16:05:00,85.7,25.2,29.90,North,351,6.0,10.0,11,0.00,,SKC,0.00,VWS V14.01,2013-03-29 23:05:00,
2013-03-29 16:10:00,85.4,25.0,29.90,NW,317,11.0,16.0,11,0.00,,SKC,0.00,VWS V14.01,2013-03-29 23:10:00,
2013-03-29 16:15:00,84.5,24.3,29.90,NNW,340,3.0,16.0,11,0.00,,SKC,0.00,VWS V14.01,2013-03-29 23:15:00,
2013-03-29 16:20:00,84.9,24.6,29.90,NNW,331,4.0,10.0,11,0.00,,SKC,0.00,VWS V14.01,2013-03-29 23:20:00,
2013-03-29 16:25:00,85.3,24.9,29.90,North,349,5.0,14.0,11,0.00,,SKC,0.00,VWS V14.01,2013-03-29 23:25:00,
2013-03-29 16:30:00,85.5,25.0,29.90,NNE,18,7.0,14.0,11,0.00,,SKC,0.00,VWS V14.01,2013-03-29 23:30:00,
2013-03-29 16:35:00,85.3,24.9,29.90,NNW,338,10.0,10.0,11,0.00,,SKC,0.00,VWS V14.01,2013-03-29 23:35:00,
2013-03-29 16:40:00,85.1,24.7,29.91,NE,46,4.0,11.0,11,0.00,,SKC,0.00,VWS V14.01,2013-03-29 23:40:00,
2013-03-29 16:45:00,85.2,24.8,29.90,North,5,6.0,13.0,11,0.00,,SKC,0.00,VWS V14.01,2013-03-29 23:45:00,
2013-03-29 16:50:00,84.7,24.4,29.90,North,360,11.0,11.0,11,0.00,,SKC,0.00,VWS V14.01,2013-03-29 23:50:00,
2013-03-29 16:55:00,83.9,23.8,29.90,ENE,57,7.0,11.0,11,0.00,,SKC,0.00,VWS V14.01,2013-03-29 23:55:00,
2013-03-29 17:00:00,84.4,26.3,29.90,NNE,19,5.0,11.0,12,0.00,,SKC,0.00,VWS V14.01,2013-03-30 00:00:00,
2013-03-29 17:06:00,84.7,24.4,29.90,NNW,342,4.0,9.0,11,0.00,,SKC,0.00,VWS V14.01,2013-03-30 00:06:00,
2013-03-29 17:11:00,84.5,24.3,29.91,NNW,340,0.0,9.0,11,0.00,,SKC,0.00,VWS V14.01,2013-03-30 00:11:00,
2013-03-29 17:16:00,84.4,24.2,29.91,North,350,3.0,9.0,11,0.00,,SKC,0.00,VWS V14.01,2013-03-30 00:16:00,
2013-03-29 17:21:00,84.3,24.1,29.91,NNW,333,7.0,10.0,11,0.00,,SKC,0.00,VWS V14.01,2013-03-30 00:21:00,
2013-03-29 17:26:00,84.2,24.0,29.91,NNE,13,0.0,10.0,11,0.00,,SKC,0.00,VWS V14.01,2013-03-30 00:26:00,
2013-03-29 17:31:00,84.1,24.0,29.91,NNW,329,7.0,10.0,11,0.00,,SKC,0.00,VWS V14.01,2013-03-30 00:31:00,
2013-03-29 17:36:00,83.6,23.6,29.91,NNE,19,5.0,11.0,11,0.00,,SKC,0.00,VWS V14.01,2013-03-30 00:36:00,
2013-03-29 17:41:00,83.2,23.3,29.91,NNE,25,9.0,11.0,11,0.00,,SKC,0.00,VWS V14.01,2013-03-30 00:41:00,
2013-03-29 17:46:00,83.1,23.2,29.91,NNW,340,9.0,13.0,11,0.00,,SKC,0.00,VWS V14.01,2013-03-30 00:46:00,
2013-03-29 17:51:00,83.1,23.2,29.91,NE,38,9.0,11.0,11,0.00,,SKC,0.00,VWS V14.01,2013-03-30 00:51:00,
2013-03-29 17:57:00,82.4,24.7,29.91,NNE,22,6.0,11.0,12,0.00,,SKC,0.00,VWS V14.01,2013-03-30 00:57:00,
2013-03-29 18:02:00,82.1,24.5,29.91,NE,49,4.0,11.0,12,0.00,,SKC,0.00,VWS V14.01,2013-03-30 01:02:00,
2013-03-29 18:07:00,81.6,24.1,29.91,NE,45,6.0,9.0,12,0.00,,SKC,0.00,VWS V14.01,2013-03-30 01:07:00,
2013-03-29 18:12:00,81.1,23.7,29.91,NE,37,7.0,9.0,12,0.00,,SKC,0.00,VWS V14.01,2013-03-30 01:12:00,
2013-03-29 18:17:00,80.4,23.2,29.91,ENE,63,3.0,4.0,12,0.00,,SKC,0.00,VWS V14.01,2013-03-30 01:17:00,
2013-03-29 18:22:00,79.7,24.5,29.91,NNE,28,6.0,10.0,13,0.00,,SKC,0.00,VWS V14.01,2013-03-30 01:22:00,
2013-03-29 18:27:00,79.0,24.0,29.91,NE,41,7.0,10.0,13,0.00,,SKC,0.00,VWS V14.01,2013-03-30 01:27:00,
2013-03-29 18:32:00,78.8,23.9,29.91,NE,44,4.0,4.0,13,0.00,,SKC,0.00,VWS V14.01,2013-03-30 01:32:00,
2013-03-29 18:37:00,78.3,23.5,29.91,NE,48,3.0,8.0,13,0.00,,SKC,0.00,VWS V14.01,2013-03-30 01:37:00,
2013-03-29 18:42:00,77.7,23.0,29.91,NE,50,4.0,8.0,13,0.00,,SKC,0.00,VWS V14.01,2013-03-30 01:42:00,
2013-03-29 18:48:00,77.3,22.7,29.91,NE,51,0.0,4.0,13,0.00,,SKC,0.00,VWS V14.01,2013-03-30 01:48:00,
2013-03-29 18:53:00,76.9,22.4,29.91,NE,53,1.0,5.0,13,0.00,,SKC,0.00,VWS V14.01,2013-03-30 01:53:00,
2013-03-29 18:58:00,76.5,22.0,29.91,NE,55,3.0,5.0,13,0.00,,SKC,0.00,VWS V14.01,2013-03-30 01:58:00,
2013-03-29 19:03:00,76.5,22.0,29.91,NE,46,0.0,0.0,13,0.00,,SKC,0.00,VWS V14.01,2013-03-30 02:03:00,
2013-03-29 19:08:00,76.1,23.5,29.91,NE,46,0.0,0.0,14,0.00,,SKC,0.00,VWS V14.01,2013-03-30 02:08:00,
2013-03-29 19:13:00,75.4,22.9,29.91,NE,46,0.0,0.0,14,0.00,,SKC,0.00,VWS V14.01,2013-03-30 02:13:00,
2013-03-29 19:18:00,74.9,22.5,29.91,NE,46,0.0,0.0,14,0.00,,SKC,0.00,VWS V14.01,2013-03-30 02:18:00,
2013-03-29 19:23:00,74.6,22.3,29.91,NE,46,0.0,0.0,14,0.00,,SKC,0.00,VWS V14.01,2013-03-30 02:23:00,
2013-03-29 19:28:00,74.3,23.7,29.91,NE,46,0.0,2.0,15,0.00,,SKC,0.00,VWS V14.01,2013-03-30 02:28:00,
2013-03-29 19:33:00,74.4,23.8,29.92,NE,46,1.0,2.0,15,0.00,,SKC,0.00,VWS V14.01,2013-03-30 02:33:00,
2013-03-29 19:38:00,74.7,22.4,29.92,ENE,64,0.0,5.0,14,0.00,,SKC,0.00,VWS V14.01,2013-03-30 02:38:00,
2013-03-29 19:43:00,74.7,22.4,29.92,ENE,64,0.0,5.0,14,0.00,,SKC,0.00,VWS V14.01,2013-03-30 02:43:00,
2013-03-29 19:48:00,74.5,22.2,29.92,ENE,64,0.0,0.0,14,0.00,,SKC,0.00,VWS V14.01,2013-03-30 02:48:00,
2013-03-29 19:53:00,74.1,23.5,29.92,ENE,64,0.0,1.0,15,0.00,,SKC,0.00,VWS V14.01,2013-03-30 02:53:00,
2013-03-29 19:59:00,73.5,23.1,29.92,ENE,65,0.0,1.0,15,0.00,,SKC,0.00,VWS V14.01,2013-03-30 02:59:00,
2013-03-29 20:04:00,73.0,22.7,29.92,ENE,65,0.0,0.0,15,0.00,,SKC,0.00,VWS V14.01,2013-03-30 03:04:00,
2013-03-29 20:09:00,72.6,22.3,29.93,ENE,64,0.0,0.0,15,0.00,,SKC,0.00,VWS V14.01,2013-03-30 03:09:00,
2013-03-29 20:14:00,72.3,23.6,29.93,ENE,64,0.0,1.0,16,0.00,,SKC,0.00,VWS V14.01,2013-03-30 03:14:00,
2013-03-29 20:19:00,72.2,22.0,29.93,NNE,15,0.0,5.0,15,0.00,,SKC,0.00,VWS V14.01,2013-03-30 03:19:00,
2013-03-29 20:24:00,72.8,22.5,29.93,NNE,15,0.0,5.0,15,0.00,,SKC,0.00,VWS V14.01,2013-03-30 03:24:00,
2013-03-29 20:29:00,72.7,22.4,29.94,NNE,15,0.0,5.0,15,0.00,,SKC,0.00,VWS V14.01,2013-03-30 03:29:00,
2013-03-29 20:34:00,72.4,22.2,29.94,NNE,14,0.0,0.0,15,0.00,,SKC,0.00,VWS V14.01,2013-03-30 03:34:00,
2013-03-29 20:39:00,72.1,23.5,29.94,NNE,14,0.0,1.0,16,0.00,,SKC,0.00,VWS V14.01,2013-03-30 03:39:00,
2013-03-29 20:45:00,71.2,24.2,29.94,West,276,1.0,3.0,17,0.00,,SKC,0.00,VWS V14.01,2013-03-30 03:45:00,
2013-03-29 20:50:00,70.4,23.5,29.95,West,276,0.0,0.0,17,0.00,,SKC,0.00,VWS V14.01,2013-03-30 03:50:00,
2013-03-29 20:55:00,69.7,24.3,29.95,West,276,0.0,0.0,18,0.00,,SKC,0.00,VWS V14.01,2013-03-30 03:55:00,
2013-03-29 21:00:00,69.2,23.9,29.95,West,276,0.0,0.0,18,0.00,,SKC,0.00,VWS V14.01,2013-03-30 04:00:00,
2013-03-29 21:01:00,69.0,23.8,29.95,West,276,0.0,0.0,18,0.00,,SKC,0.00,VWS V14.01,2013-03-30 04:01:00,
2013-03-29 21:07:00,68.6,24.7,29.95,West,276,0.0,0.0,19,0.00,,SKC,0.00,VWS V14.01,2013-03-30 04:07:00,
2013-03-29 21:12:00,68.2,24.4,29.95,West,276,0.0,0.0,19,0.00,,SKC,0.00,VWS V14.01,2013-03-30 04:12:00,
2013-03-29 21:17:00,67.9,24.1,29.96,West,276,0.0,0.0,19,0.00,,SKC,0.00,VWS V14.01,2013-03-30 04:17:00,
2013-03-29 21:22:00,67.4,25.0,29.96,West,276,0.0,0.0,20,0.00,,SKC,0.00,VWS V14.01,2013-03-30 04:22:00,
2013-03-29 21:27:00,66.8,24.5,29.96,West,276,0.0,1.0,20,0.00,,SKC,0.00,VWS V14.01,2013-03-30 04:27:00,
2013-03-29 21:32:00,66.4,24.1,29.96,West,276,0.0,0.0,20,0.00,,SKC,0.00,VWS V14.01,2013-03-30 04:32:00,
2013-03-29 21:37:00,66.1,23.9,29.96,West,276,0.0,0.0,20,0.00,,SKC,0.00,VWS V14.01,2013-03-30 04:37:00,
2013-03-29 21:42:00,66.0,22.6,29.96,West,275,0.0,0.0,19,0.00,,SKC,0.00,VWS V14.01,2013-03-30 04:42:00,
2013-03-29 21:47:00,65.6,23.5,29.97,South,177,0.0,0.0,20,0.00,,SKC,0.00,VWS V14.01,2013-03-30 04:47:00,
2013-03-29 21:52:00,65.4,23.3,29.97,SSW,210,0.0,0.0,20,0.00,,SKC,0.00,VWS V14.01,2013-03-30 04:52:00,
2013-03-29 21:57:00,65.1,23.1,29.97,SSW,210,0.0,0.0,20,0.00,,SKC,0.00,VWS V14.01,2013-03-30 04:57:00,
2013-03-29 22:03:00,65.0,23.0,29.97,SSW,210,0.0,0.0,20,0.00,,SKC,0.00,VWS V14.01,2013-03-30 05:03:00,
2013-03-29 22:08:00,64.8,22.8,29.98,SSW,210,0.0,0.0,20,0.00,,SKC,0.00,VWS V14.01,2013-03-30 05:08:00,
2013-03-29 22:13:00,64.6,22.6,29.97,SSW,210,0.0,0.0,20,0.00,,SKC,0.00,VWS V14.01,2013-03-30 05:13:00,
2013-03-29 22:18:00,64.6,22.6,29.97,SSW,209,0.0,0.0,20,0.00,,SKC,0.00,VWS V14.01,2013-03-30 05:18:00,
2013-03-29 22:23:00,64.7,22.7,29.97,SSW,209,0.0,1.0,20,0.00,,SKC,0.00,VWS V14.01,2013-03-30 05:23:00,
2013-03-29 22:28:00,64.8,21.6,29.97,SSW,209,0.0,1.0,19,0.00,,SKC,0.00,VWS V14.01,2013-03-30 05:28:00,
2013-03-29 22:33:00,64.8,21.6,29.97,SSW,209,0.0,0.0,19,0.00,,SKC,0.00,VWS V14.01,2013-03-30 05:33:00,
2013-03-29 22:38:00,64.8,22.8,29.97,SSW,209,0.0,0.0,20,0.00,,SKC,0.00,VWS V14.01,2013-03-30 05:38:00,
2013-03-29 22:43:00,64.8,22.8,29.97,SSW,209,0.0,0.0,20,0.00,,SKC,0.00,VWS V14.01,2013-03-30 05:43:00,
2013-03-29 22:48:00,64.6,22.6,29.97,SSW,209,0.0,0.0,20,0.00,,SKC,0.00,VWS V14.01,2013-03-30 05:48:00,
2013-03-29 22:53:00,64.6,22.6,29.97,SSW,209,0.0,0.0,20,0.00,,SKC,0.00,VWS V14.01,2013-03-30 05:53:00,
2013-03-29 22:58:00,64.6,22.6,29.97,SSW,209,0.0,0.0,20,0.00,,SKC,0.00,VWS V14.01,2013-03-30 05:58:00,
2013-03-29 23:03:00,64.5,22.6,29.97,SSW,209,0.0,0.0,20,0.00,,SKC,0.00,VWS V14.01,2013-03-30 06:03:00,
2013-03-29 23:09:00,64.4,22.5,29.98,SSW,209,0.0,0.0,20,0.00,,SKC,0.00,VWS V14.01,2013-03-30 06:09:00,
2013-03-29 23:14:00,64.3,22.4,29.98,SSW,209,0.0,0.0,20,0.00,,SKC,0.00,VWS V14.01,2013-03-30 06:14:00,
2013-03-29 23:19:00,64.3,22.4,29.98,SSW,209,0.0,0.0,20,0.00,,SKC,0.00,VWS V14.01,2013-03-30 06:19:00,
2013-03-29 23:24:00,64.3,22.4,29.98,SSW,209,0.0,0.0,20,0.00,,SKC,0.00,VWS V14.01,2013-03-30 06:24:00,
2013-03-29 23:29:00,64.2,23.5,29.98,SSW,209,0.0,0.0,21,0.00,,SKC,0.00,VWS V14.01,2013-03-30 06:29:00,
2013-03-29 23:34:00,63.9,23.2,29.98,SSW,209,0.0,0.0,21,0.00,,SKC,0.00,VWS V14.01,2013-03-30 06:34:00,
2013-03-29 23:39:00,63.8,23.1,29.98,SSW,209,0.0,0.0,21,0.00,,SKC,0.00,VWS V14.01,2013-03-30 06:39:00,
2013-03-29 23:44:00,63.6,23.0,29.98,SSW,209,0.0,0.0,21,0.00,,SKC,0.00,VWS V14.01,2013-03-30 06:44:00,
2013-03-29 23:49:00,63.3,23.8,29.98,SSW,209,0.0,0.0,22,0.00,,SKC,0.00,VWS V14.01,2013-03-30 06:49:00,
2013-03-29 23:54:00,63.0,23.6,29.99,SSW,209,0.0,0.0,22,0.00,,SKC,0.00,VWS V14.01,2013-03-30 06:54:00,
2013-03-29 23:59:00,62.5,23.2,29.99,SSW,209,0.0,0.0,22,0.00,,SKC,0.00,VWS V14.01,2013-03-30 06:59:00,